Regional Weather Roundup
Issued by NWS Little Rock, AR

Home | Current Version | Previous Version | Text Only | Print | Product List | Glossary Off
Versions: 1 2 3 4 5 6 7 8 9 10 11 12 13 14 15 16 17 18 19 20 21 22 23 24 25 26 27 28 29 30 31 32 33 34 35 36 37 38 39 40 41 42 43 44 45 46 47 48 49 50

000
ASUS44 KLZK 241805
RWRLZK

WEATHER ROUNDUP FOR ARKANSAS
NATIONAL WEATHER SERVICE LITTLE ROCK AR
100 PM CDT THU JUL 24 2014

NOTE: "FAIR" INDICATES FEW OR NO CLOUDS BELOW 12,000 FEET WITH NO
SIGNIFICANT WEATHER AND/OR OBSTRUCTIONS TO VISIBILITY.

ARZ001-003-010-029-241900-
NORTHWEST ARKANSAS

CITY           SKY/WX    TMP DP  RH WIND       PRES   REMARKS
FAYETTEVILLE   CLOUDY    77  70  79 CALM      30.12F
6HR MIN TEMP:  62; 6HR MAX TEMP:  77;

FORT SMITH     PTSUNNY   82  69  64 E7        30.08F HX  85
6HR MIN TEMP:  68; 6HR MAX TEMP:  83;

HARRISON       SUNNY     78  60  53 VRB5      30.14F
6HR MIN TEMP:  69; 6HR MAX TEMP:  78;

BENTONVILLE    CLOUDY    81  68  65 SE5       30.13F
6HR MIN TEMP:  70; 6HR MAX TEMP:  55;

ROGERS         SUNNY     81  66  60 E8        30.13F
6HR MIN TEMP:  70; 6HR MAX TEMP:  81;

SILOAM SPGS    CLOUDY    79  64  61 SE6       30.13F
6HR MIN TEMP:  64; 6HR MAX TEMP:  79;

HIGHFILL       PTSUNNY   80  70  71 S8        30.12F
6HR MIN TEMP:  67; 6HR MAX TEMP:  82;

SPRINGDALE     PTSUNNY   79  70  73 SE5       30.14F
$$

ARZ004-005-016-241900-
NORTH CENTRAL ARKANSAS

CITY           SKY/WX    TMP DP  RH WIND       PRES   REMARKS
BATESVILLE     SUNNY     81  61  50 NW3       30.10F
6HR MIN TEMP:  70; 6HR MAX TEMP:  81;

FLIPPIN        SUNNY     79  59  50 NE5       30.13F
6HR MIN TEMP:  68; 6HR MAX TEMP:  79;

MTN HOME       SUNNY     78  60  53 VRB5      30.12F
6HR MIN TEMP:  68; 6HR MAX TEMP:  78;

$$

ARZ040-041-241900-
WEST CENTRAL ARKANSAS

CITY           SKY/WX    TMP DP  RH WIND       PRES   REMARKS
MENA           MOSUNNY   82  72  69 CALM      30.11S HX  87
MOUNT IDA      CLOUDY    79  70  74 VRB5      30.08F
6HR MIN TEMP:  64; 6HR MAX TEMP:  79;

$$

ARZ009-017-025-026-028-241900-
NORTHEAST ARKANSAS

CITY           SKY/WX    TMP DP  RH WIND       PRES   REMARKS
CORNING          N/A     77  57  50 N8        30.10F
JONESBORO      SUNNY     78  56  46 NE9       30.08F
6HR MIN TEMP:  68; 6HR MAX TEMP:  78;

NEWPORT        SUNNY     78  61  55 NE12      30.11F
6HR MIN TEMP:  68; 6HR MAX TEMP:  78;

WALNUT RIDGE   SUNNY     79  57  47 N10       30.09F
6HR MIN TEMP:  66; 6HR MAX TEMP:  79;

BLYTHEVILLE    SUNNY     77  61  57 N13       30.08F
6HR MIN TEMP:  65; 6HR MAX TEMP:  78;

NW BLYTHEVILLE SUNNY     77  55  47 N13       30.07F
$$

ARZ022-023-033-042-044-241900-
CENTRAL ARKANSAS

CITY           SKY/WX    TMP DP  RH WIND       PRES   REMARKS
LITTLE ROCK    CLOUDY    80  68  66 E7        30.08F
6HR MIN TEMP:  71; 6HR MAX TEMP:  80;

N LITTLE ROCK  CLOUDY    79  71  77 NE6       30.08F
6HR MIN TEMP:  69; 6HR MAX TEMP:  80;

JACKSONVILLE   PTSUNNY   81  68  65 VRB5      30.08F
6HR MIN TEMP:  69; 6HR MAX TEMP:  81;

SEARCY         SUNNY     80  61  52 NE10      30.10F
6HR MIN TEMP:  71; 6HR MAX TEMP:  80;

HOT SPRINGS    CLOUDY    78  71  79 E5        30.09F
6HR MIN TEMP:  67; 6HR MAX TEMP:  79;

RUSSELLVILLE   PTSUNNY   82  69  64 VRB3      30.09F HX  85
6HR MIN TEMP:  70; 6HR MAX TEMP:  82;

CLINTON        CLOUDY    81  64  57 CALM      30.11S
$$

ARZ036-241900-
EAST ARKANSAS

CITY           SKY/WX    TMP DP  RH WIND       PRES   REMARKS
WEST MEMPHIS   SUNNY     81  59  47 N8        30.06F
6HR MIN TEMP:  71; 6HR MAX TEMP:  81;

$$

ARZ050-053-066-070-073-241900-
SOUTHWEST ARKANSAS

CITY           SKY/WX    TMP DP  RH WIND       PRES   REMARKS
ARKADELPHIA    CLOUDY    78  73  84 VRB3      30.08F
6HR MIN TEMP:  69; 6HR MAX TEMP:  78;

CAMDEN         CLOUDY    82  70  65 NE7       30.06F HX  86
TEXARKANA      CLOUDY    76  70  82 E7        30.08S
6HR MIN TEMP:  68; 6HR MAX TEMP:  76;

EL DORADO      PTSUNNY   85  72  65 N8        30.05F HX  91
6HR MIN TEMP:  69; 6HR MAX TEMP:  85;

DE QUEEN       MOSUNNY   83  72  69 VRB6      30.06F HX  88
6HR MIN TEMP:  79; 6HR MAX TEMP:  91;

$$

ARZ056-057-069-241900-
SOUTHEAST ARKANSAS

CITY           SKY/WX    TMP DP  RH WIND       PRES   REMARKS
PINE BLUFF     CLOUDY    77  70  79 N8        30.07F
6HR MIN TEMP:  69; 6HR MAX TEMP:  78;

STUTTGART      MOSUNNY   81  70  69 N10       30.08S
6HR MIN TEMP:  70; 6HR MAX TEMP:  81;

MONTICELLO     PTSUNNY   85  71  63 VRB5      30.04F HX  90
6HR MIN TEMP:  71; 6HR MAX TEMP:  86;


$$




USA.gov is the U.S. government's official web portal to all federal, state and local government web resources and services.